Regional Weather Roundup
Issued by NWS Cleveland, OH

Home | Current Version | Previous Version | Graphics & Text | Print | Product List | Glossary On
Versions: 1 2 3 4 5 6 7 8 9 10 11 12 13 14 15 16 17 18 19 20 21 22 23 24 25 26 27 28 29 30 31 32 33 34 35 36 37 38 39 40 41 42 43 44 45 46 47 48 49 50
000
ASUS41 KCLE 260710
RWRCLE
OHIO REGIONAL WEATHER ROUNDUP
NATIONAL WEATHER SERVICE WILMINGTON, OH
200 AM EST WED NOV 26 2014

NOTE: "FAIR" INDICATES FEW OR NO CLOUDS BELOW 12,000 FEET WITH NO
SIGNIFICANT WEATHER AND/OR OBSTRUCTIONS TO VISIBILITY.

OHZ001>008-015>018-024>027-034-035-043-044-260800-
   NORTHWEST OHIO

CITY           SKY/WX    TMP DP  RH WIND       PRES   REMARKS
DEFIANCE       NOT AVBL
FINDLAY        CLOUDY    29  20  69 N5        30.15F WCI  24
TOLEDO EXPRESS CLOUDY    27  20  75 CALM      30.18F
TOLEDO METCALF CLOUDY    29  19  66 E3        30.19F
LIMA           CLOUDY    28  20  71 NE3       30.15F
$$

OHZ009>014-019>023-028>033-038-089-260800-
   NORTHEAST OHIO

CITY           SKY/WX    TMP DP  RH WIND       PRES   REMARKS
CLE-HOPKINS    CLOUDY    31  24  75 CALM      30.18F
CLE-LAKEFRONT  CLOUDY    34  25  69 CALM      30.16F
CUY CO. ARPT   NOT AVBL
LORAIN-ELYRIA  CLOUDY    30  23  75 CALM      30.16F
ASHTABULA      CLOUDY    32  25  75 CALM      30.18F
AKRON-CANTON   MOCLDY    29  24  82 NE7       30.11F WCI  22
WOOSTER        MOCLDY    28  23  81 CALM      30.15F
MANSFIELD      CLOUDY    28  22  78 N3        30.13F
YOUNGSTOWN     CLOUDY    31  25  78 NE7       30.13F WCI  24
$$

OHZ042-051>053-060>062-070>072-077>081-260800-
  SOUTHWEST OHIO

CITY           SKY/WX    TMP DP  RH WIND       PRES   REMARKS
CINC-COVINGTON PTCLDY    29  23  78 N5        30.15S WCI  24
CINC-LUNKEN    MOCLDY    29  25  85 NE3       30.19S
HAMILTON       CLOUDY    26  25  96 CALM      30.18S
DAYTON         CLOUDY    29  25  85 N6        30.17R WCI  23
WRIGHT-PAT AFB MOCLDY    27  23  86 NE6       30.17R WCI  20
DAYTON GENERAL MOCLDY    27  24  89 NE5       30.15S WCI  22
WILMINGTON     CLOUDY    28  24  85 E5        30.16R WCI  23
$$

OHZ036-037-039>041-045>050-054>059-063>069-073>076-082>088-260800-
  CENTRAL AND SOUTHEAST OHIO

CITY           SKY/WX    TMP DP  RH WIND       PRES   REMARKS
COLUMBUS       CLOUDY    28  23  81 CALM      30.17S
OSU AIRPORT    CLOUDY    26  22  84 NE5       30.16F WCI  20
BOLTON FIELD   NOT AVBL
RICKENBACK AFB MOCLDY    28  25  86 NE3       30.18R
NEWARK         MOCLDY    30  24  78 CALM      30.17S
MARION         CLOUDY    29  23  78 N6        30.15F WCI  23
LANCASTER      MOCLDY    28  25  88 N5        30.16F WCI  23
ZANESVILLE     MOCLDY    29  25  85 CALM      30.16F
NEW PHILLY     MOCLDY    29  26  89 CALM      30.18F
$$


USA.gov is the U.S. government's official web portal to all federal, state and local government web resources and services.